This demonstration page uses our WeatherBlox Daily Observations layout. Learn more.

36.17497, -115.13722

Hourly Observations for May 3, 2015

Temp ( °F °C ) Dew Point ( °F °C ) Humidity (%) Winds ( mph kmh ) Pressure ( in mb ) Visibility ( mi km ) Precip ( " mm )
12:53 am 00:53 Clear 74 23.3 27 -2.8 17 17 N 6 9 29.75 1007 10 16.0934 0 0
1:53 am 01:53 Clear 72 22.2 26 -3.3 18 18 ESE 6 9 29.76 1008 10 16.0934 0 0
2:53 am 02:53 Clear 71 21.7 25 -3.9 18 18 NNW 5 7 29.76 1008 10 16.0934 0 0
3:53 am 03:53 Clear 68 20 25 -3.9 20 20 Calm 29.77 1008 10 16.0934 0 0
4:53 am 04:53 Mostly Clear 67 19.4 28 -2.2 23 23 N 6 9 29.77 1008 10 16.0934 0 0
5:53 am 05:53 Sunny 68 20 27 -2.8 21 21 NE 5 7 29.78 1009 10 16.0934 0 0
6:53 am 06:53 Sunny 67 19.4 28 -2.2 23 23 Calm 29.81 1010 10 16.0934 0 0
7:53 am 07:53 Sunny 73 22.8 32 0 22 22 NE 3 6 29.83 1010 10 16.0934 0 0
8:53 am 08:53 Partly Cloudy 77 25 27 -2.8 16 16 SSE 8 13 29.84 1010 10 16.0934 0 0
9:53 am 09:53 Mostly Cloudy 80 26.7 29 -1.7 15 15 SE 10 17 29.84 1011 10 16.0934 0 0
10:53 am 10:53 Sunny 83 28.3 34 1.1 17 17 SE 16 26 29.83 1010 10 16.0934 0 0
11:53 am 11:53 Sunny 86 30 32 0 14 14 SSE 16 26 29.81 1010 10 16.0934 0 0
12:53 pm 12:53 Sunny 86 30 30 -1.1 13 13 SE 16 26 29.79 1009 10 16.0934 0 0
1:53 pm 13:53 Sunny 86 30 29 -1.7 13 13 SSE 10 17 29.76 1008 10 16.0934 0 0
2:53 pm 14:53 Mostly Sunny 87 30.6 31 -0.6 13 13 VRB 6 9 29.73 1007 10 16.0934 0 0
3:53 pm 15:53 Sunny 89 31.7 22 -5.6 8 8 VRB 7 11 29.7 1006 10 16.0934 0 0
4:53 pm 16:53 Sunny 88 31.1 26 -3.3 10 10 VRB 5 7 29.69 1006 10 16.0934 0 0
5:53 pm 17:53 Sunny 88 31.1 25 -3.9 10 10 SSW 10 17 29.68 1005 10 16.0934 0 0
6:53 pm 18:53 Sunny 87 30.6 24 -4.4 10 10 SW 12 19 29.67 1005 10 16.0934 0 0
7:53 pm 19:53 Clear 84 28.9 23 -5 10 10 W 12 19 29.69 1005 10 16.0934 0 0
8:53 pm 20:53 Clear 82 27.8 22 -5.6 11 11 WSW 7 11 29.71 1006 10 16.0934 0 0
9:53 pm 21:53 Clear 80 26.7 21 -6.1 11 11 SW 8 13 29.73 1007 10 16.0934 0 0
10:53 pm 22:53 Clear 78 25.6 23 -5 13 13 S 8 13 29.73 1007 10 16.0934 0 0
11:53 pm 23:53 Clear 75 23.9 24 -4.4 15 15 S 7 11 29.74 1007 10 16.0934 0 0

Powered by AerisWeather